[[{"header":{"parameterUnit":"m.s-1","parameterCategory":1,"la1":30.2991,"la2":30.254,"lo1":-89.0895,"lo2":-89.0444,"dy":0.0017,"dx":0.0017,"nx":28,"ny":28,"refTime":"2024-06-27T21:00:00:Z","depth":0,"parameterNumber":2,"parameterNumberName":"U-component_of_WINDS"},"data":[0,0,0,0,0,0,0,0,0,0,0,0,0,0,0,0,0,0,0,0,0,0,0,0,0,0,0,0,0,0,0,0,0,0,0,0,0,0,0,0,0,0,0,0,0,0,0,0,0,0,0,0,0,0,0,0,0,0,1.2388,1.2389,0,1.2555,1.2557,1.2559,1.256,1.2558,1.2555,1.2553,1.2727,1.2733,1.274,0,0,0,0,0,0,0,0,0,0,0,0,0,1.2069,1.2075,1.2387,1.239,1.2392,1.2555,1.2557,1.2559,1.256,1.2558,1.2555,1.2552,1.2725,1.2732,1.274,0,0,0,0,0,0,0,0,0,0,0,0,0,1.2219,1.2076,1.2387,1.2412,1.2415,1.2554,1.2557,1.256,1.2561,1.2557,1.2554,1.2551,1.2722,1.2732,1.2741,1.2867,0,0,1.2772,1.2776,0,0,0,0,0,0,0,0,1.221,1.223,1.2406,1.241,1.2415,1.2533,1.2508,1.2663,1.2561,1.2506,1.2553,1.255,1.2665,1.2679,1.2718,1.2875,1.2883,1.2773,1.2779,1.2783,1.2786,0,0,0,0,0,0,0,1.22,1.2223,1.2454,1.2408,1.2414,1.2414,1.2432,1.2538,1.2601,1.251,1.2511,1.253,1.2667,1.2708,1.2722,1.2885,1.2772,1.2781,1.2787,1.2791,1.3153,1.3157,0,0,0,0,0,0,1.2184,1.2215,1.2448,1.2459,1.2302,1.2423,1.2443,1.2498,1.26,1.2613,1.2533,1.253,1.2693,1.271,1.2728,1.2882,1.2783,1.2792,1.2798,1.315,1.3154,1.3158,0,0,0,0,0,0,1.2177,1.2205,1.2442,1.2337,1.2367,1.2432,1.2494,1.2503,1.2545,1.2617,1.2629,1.2564,1.2691,1.2714,1.2832,1.2888,1.2797,1.2806,1.3145,1.3151,1.3156,1.3191,0,0,0,0,0,0,1.2168,1.2203,1.2251,1.2338,1.2373,1.2543,1.2498,1.2509,1.2562,1.2559,1.2649,1.2661,1.269,1.2817,1.2842,1.29,1.2813,1.3141,1.3148,1.3154,1.3185,1.3197,1.3207,0,0,0,0,0,1.2157,1.2255,1.2254,1.2282,1.2435,1.2546,1.2566,1.2597,1.2566,1.2616,1.2662,1.2658,1.2877,1.283,1.2857,1.2919,1.3137,1.3146,1.3154,1.318,1.3195,1.3207,0,0,0,0,0,0,1.2174,1.2267,1.2267,1.2396,1.2463,1.2546,1.261,1.2612,1.269,1.2684,1.272,1.274,1.2858,1.29,1.2845,1.3046,1.3004,1.3018,1.3014,1.3028,1.3039,1.3027,1.2822,0,0,0,0,0,1.2193,1.2276,1.2352,1.2458,1.2492,1.2545,1.2595,1.2613,1.2684,1.2713,1.2768,1.2838,1.2922,1.2978,1.3059,1.319,1.321,1.3246,1.3257,1.3266,1.3278,1.335,1.3367,1.3185,1.3185,1.3185,0,0,1.2233,1.2293,1.2344,1.2463,1.2518,1.2603,1.2569,1.2661,1.2724,1.2727,1.2842,1.2884,1.2965,1.309,1.3147,1.3129,1.3332,1.3276,1.3283,1.3291,1.336,1.3377,1.3393,1.3191,1.319,1.3189,0,0,1.2349,1.2403,1.2497,1.2552,1.2634,1.2668,1.2691,1.2774,1.2802,1.2917,1.2921,1.2997,1.3142,1.3199,1.3246,1.3382,1.3381,1.3407,1.3465,1.3535,1.3549,1.3562,1.361,1.3627,1.3419,1.3419,1.3419,0,1.2388,1.2516,1.2546,1.2637,1.269,1.2695,1.2791,1.2842,1.2947,1.2983,1.296,1.3141,1.3196,1.3334,1.3366,1.3405,1.3432,1.3398,1.3544,1.3558,1.357,1.3617,1.3635,1.3422,1.3421,1.3421,1.3421,0,1.256,1.2649,1.2715,1.2815,1.2875,1.2968,1.3012,1.3069,1.3081,1.3117,1.3234,1.3299,1.3394,1.3428,1.3441,1.3567,1.3553,1.3537,1.3496,1.359,1.3634,1.3652,1.3425,1.3425,1.3424,1.3423,0,0,1.2694,1.2808,1.2832,1.2877,1.2967,1.3036,1.3129,1.3221,1.3269,1.3341,1.342,1.3541,1.3526,1.358,1.3599,1.366,1.3763,1.3637,1.3639,1.3658,1.3906,1.3919,1.3939,1.3762,1.3766,1.3769,1.39,0,1.282,1.2985,1.3014,1.3158,1.324,1.3245,1.3326,1.339,1.3426,1.3501,1.354,1.3626,1.36,1.3632,1.3693,1.3738,1.3813,1.3728,1.3837,1.384,1.3817,1.3962,1.3976,1.4096,1.3917,1.392,1.3922,0,1.299,1.3065,1.3217,1.3295,1.3331,1.3403,1.3489,1.356,1.3632,1.3654,1.3713,1.3725,1.3822,1.3774,1.3908,1.3849,1.3895,1.3923,1.3929,1.3941,1.3888,1.3979,1.4136,1.4154,1.395,1.3948,1.3946,0,1.3072,1.3211,1.332,1.3359,1.3453,1.3503,1.3545,1.3613,1.3666,1.3741,1.3776,1.3861,1.3908,1.3973,1.4007,1.397,1.4138,1.4094,1.4159,1.4159,1.4196,1.4193,1.4363,1.4223,1.4223,1.4223,1.4222,0,1.3211,1.3304,1.3359,1.3426,1.353,1.3561,1.3664,1.3704,1.3765,1.384,1.3849,1.3919,1.396,1.4036,1.4063,1.4169,1.419,1.421,1.4217,1.421,1.4208,1.4242,1.4234,1.4228,1.4227,1.4226,1.4225,0,1.3321,1.3362,1.3481,1.3559,1.3581,1.3654,1.3721,1.3787,1.3821,1.3916,1.394,1.3995,1.4085,1.4125,1.4236,1.4254,1.4375,1.4375,1.4351,1.4353,1.4416,1.441,1.4614,1.4643,1.4484,1.4485,1.4486,0,1.3408,1.3479,1.3565,1.3615,1.3658,1.3739,1.3793,1.3826,1.3881,1.3968,1.4023,1.4113,1.4186,1.4329,1.4379,1.4464,1.4466,1.4532,1.4479,1.447,1.4468,1.4464,1.4471,1.4542,1.4544,1.4545,1.4546,0,1.3556,1.3572,1.3649,1.3733,1.3797,1.3864,1.393,1.3971,1.4014,1.4076,1.4168,1.4225,1.4337,1.4426,1.4513,1.4556,1.4559,1.4562,1.4581,1.4576,1.4559,1.457,1.4378,1.4557,1.4556,1.4555,1.4555,1.4554,1.3658,1.3722,1.3791,1.3877,1.3929,1.3991,1.4056,1.4098,1.4175,1.4269,1.4283,1.4381,1.445,1.4567,1.4613,1.4689,1.4673,1.4702,1.4709,1.4716,1.472,1.4546,1.4705,1.4705,1.4704,1.4704,1.4704,0,1.3808,1.3852,1.393,1.4022,1.4089,1.4084,1.4156,1.4213,1.4298,1.4362,1.4434,1.4539,1.4624,1.468,1.4767,1.4817,1.4821,1.4839,1.4836,1.4846,1.4729,1.4704,1.4835,1.4835,1.4835,1.4835,1.4835,1.4835,1.3893,1.4001,1.4025,1.4158,1.4202,1.4298,1.4339,1.4396,1.4447,1.4563,1.4634,1.467,1.473,1.4821,1.4899,1.4913,1.4945,1.4965,1.4978,1.4868,1.4854,1.4841,1.4818,1.4971,1.4971,1.5089,1.509,1.5091]},{"header":{"parameterUnit":"m.s-1","parameterCategory":1,"la1":30.2991,"la2":30.254,"lo1":-89.0895,"lo2":-89.0444,"dy":0.0017,"dx":0.0017,"nx":28,"ny":28,"refTime":"2024-06-27T21:00:00:Z","depth":0,"parameterNumber":3,"parameterNumberName":"V-component_of_WINDS"},"data":[0,0,0,0,0,0,0,0,0,0,0,0,0,0,0,0,0,0,0,0,0,0,0,0,0,0,0,0,0,0,0,0,0,0,0,0,0,0,0,0,0,0,0,0,0,0,0,0,0,0,0,0,0,0,0,0,0,0,6.5463,6.5463,0,6.5524,6.5524,6.5525,6.5468,6.5465,6.5463,6.5461,6.5518,6.5522,6.5525,0,0,0,0,0,0,0,0,0,0,0,0,0,6.5289,6.5293,6.5463,6.5463,6.5464,6.5524,6.5524,6.5525,6.5468,6.5465,6.5463,6.546,6.5517,6.5521,6.5526,0,0,0,0,0,0,0,0,0,0,0,0,0,6.5359,6.5294,6.5463,6.5443,6.5442,6.5523,6.5524,6.5525,6.5469,6.5465,6.5462,6.5459,6.5515,6.5521,6.5526,6.5628,0,0,6.5543,6.5545,0,0,0,0,0,0,0,0,6.5355,6.5365,6.5445,6.5445,6.5443,6.5485,6.5484,6.556,6.547,6.5458,6.5461,6.5457,6.5509,6.5515,6.5534,6.5631,6.5634,6.5543,6.5547,6.5549,6.5551,0,0,0,0,0,0,0,6.535,6.5362,6.5487,6.5446,6.5445,6.5429,6.5435,6.5498,6.5502,6.5459,6.5455,6.5463,6.5508,6.5529,6.5535,6.5634,6.5543,6.5548,6.5551,6.5554,6.5815,6.5819,0,0,0,0,0,0,6.5348,6.5359,6.5485,6.5488,6.539,6.5435,6.5442,6.5475,6.5501,6.5502,6.5466,6.5461,6.5521,6.5529,6.5537,6.5656,6.5549,6.5554,6.5557,6.5812,6.5816,6.582,0,0,0,0,0,0,6.5345,6.536,6.5482,6.5423,6.5437,6.5441,6.5479,6.5478,6.5498,6.5507,6.5507,6.5487,6.5519,6.5529,6.5606,6.5657,6.5557,6.5562,6.5807,6.5813,6.5818,6.5898,0,0,0,0,0,0,6.534,6.5359,6.54,6.5424,6.544,6.5553,6.5483,6.5482,6.5509,6.5502,6.5526,6.5527,6.5517,6.5598,6.5611,6.5663,6.5566,6.5803,6.581,6.5816,6.589,6.5905,6.5918,0,0,0,0,0,6.5334,6.542,6.5403,6.5418,6.5492,6.5556,6.5565,6.5553,6.5513,6.5553,6.5558,6.5526,6.565,6.5606,6.5621,6.5675,6.5799,6.5808,6.5816,6.5884,6.5902,6.5918,0,0,0,0,0,0,6.5401,6.5423,6.5404,6.55,6.5527,6.5546,6.5596,6.5573,6.561,6.5602,6.5584,6.559,6.5671,6.568,6.5632,6.5774,6.5718,6.5729,6.5765,6.5782,6.5796,6.5791,6.557,0,0,0,0,0,6.5427,6.5479,6.5494,6.5578,6.5592,6.5592,6.5619,6.5608,6.5634,6.5645,6.5655,6.568,6.5724,6.5754,6.5795,6.5892,6.5895,6.5936,6.595,6.5961,6.5971,6.602,6.6038,6.5847,6.5847,6.5847,0,0,6.548,6.5499,6.5533,6.5591,6.5611,6.5663,6.5602,6.566,6.5698,6.5653,6.5726,6.5735,6.5761,6.5848,6.5886,6.5858,6.6024,6.5971,6.598,6.5984,6.603,6.6048,6.6064,6.5853,6.5852,6.5851,0,0,6.5605,6.5626,6.5696,6.5717,6.5747,6.5746,6.5763,6.5786,6.579,6.5863,6.583,6.5873,6.5951,6.597,6.599,6.612,6.6091,6.6134,6.6205,6.6253,6.6268,6.6281,6.6326,6.6342,6.6144,6.6144,6.6144,0,6.5668,6.5748,6.5735,6.5795,6.582,6.5783,6.5853,6.5872,6.5914,6.5931,6.59,6.5994,6.601,6.6099,6.6131,6.6149,6.6165,6.6131,6.6268,6.6281,6.6293,6.6335,6.6352,6.6149,6.6148,6.6148,6.6147,0,6.5822,6.5877,6.593,6.5972,6.6003,6.6068,6.6063,6.6095,6.608,6.6082,6.6155,6.6172,6.6215,6.6236,6.6222,6.6323,6.6304,6.6271,6.6213,6.6316,6.6355,6.6371,6.6155,6.6154,6.6152,6.6151,0,0,6.5991,6.6024,6.6044,6.6061,6.6091,6.6132,6.6194,6.6237,6.6265,6.6294,6.6343,6.6409,6.6377,6.64,6.6387,6.643,6.6529,6.639,6.6391,6.6414,6.6639,6.6663,6.6682,6.651,6.6513,6.6516,6.6636,0,6.6116,6.6225,6.6214,6.6316,6.6365,6.633,6.6383,6.6405,6.6408,6.6448,6.645,6.6496,6.6452,6.6465,6.6505,6.6508,6.6573,6.65,6.6554,6.6556,6.6548,6.6703,6.6729,6.6842,6.6651,6.6654,6.6656,0,6.6276,6.6312,6.642,6.644,6.646,6.6508,6.6545,6.6585,6.6609,6.6607,6.6632,6.6611,6.667,6.6613,6.6692,6.6642,6.6664,6.6668,6.6672,6.6676,6.6612,6.6709,6.6878,6.6894,6.668,6.6678,6.6676,0,6.6386,6.6461,6.6535,6.6551,6.6577,6.6611,6.6623,6.6644,6.6669,6.6701,6.6717,6.6756,6.6776,6.6805,6.6794,6.6754,6.6875,6.6817,6.6874,6.6874,6.69,6.6899,6.7073,6.6916,6.6916,6.6916,6.6916,0,6.6526,6.6593,6.6585,6.663,6.6703,6.6688,6.676,6.6767,6.6785,6.6829,6.68,6.6841,6.6825,6.6865,6.6856,6.6922,6.6932,6.6931,6.6927,6.6933,6.6933,6.6946,6.6937,6.692,6.6919,6.6918,6.6918,0,6.6662,6.666,6.6737,6.6755,6.676,6.6813,6.6827,6.6868,6.6867,6.6923,6.6935,6.6934,6.6979,6.6972,6.7021,6.7016,6.7097,6.7085,6.709,6.7087,6.7143,6.7137,6.7331,6.7355,6.7184,6.7186,6.7187,0,6.6751,6.6802,6.6824,6.6852,6.6867,6.6912,6.6939,6.6925,6.6953,6.6983,6.7019,6.7062,6.7095,6.7169,6.7171,6.7208,6.7196,6.7261,6.7201,6.7204,6.7195,6.7191,6.7195,6.7272,6.7274,6.7276,6.7277,0,6.6908,6.6904,6.6944,6.6983,6.7015,6.7045,6.7071,6.7095,6.7084,6.7116,6.7163,6.7188,6.7239,6.7281,6.7315,6.7325,6.7299,6.7296,6.7311,6.7316,6.7316,6.7315,6.7121,6.7292,6.729,6.7289,6.7288,6.7288,6.7022,6.7064,6.7087,6.7131,6.715,6.7175,6.7214,6.7218,6.7257,6.7298,6.7287,6.7338,6.7358,6.7401,6.7415,6.7454,6.7429,6.7451,6.7456,6.7462,6.7468,6.7311,6.746,6.746,6.7459,6.7459,6.7459,0,6.7176,6.7189,6.723,6.7268,6.7302,6.7276,6.7303,6.7333,6.7379,6.74,6.7434,6.7485,6.7525,6.753,6.7568,6.7597,6.7586,6.7607,6.7604,6.7607,6.7488,6.7471,6.7616,6.7616,6.7616,6.7616,6.7616,6.7616,6.7261,6.733,6.7328,6.7405,6.7416,6.7468,6.7485,6.7507,6.7524,6.7583,6.7617,6.762,6.7634,6.7672,6.7706,6.7706,6.7721,6.7746,6.7742,6.7631,6.7615,6.76,6.7584,6.775,6.775,6.7857,6.7858,6.7858]}]]